Regional Weather Roundup
Issued by NWS Memphis, TN

Home | Current Version | Previous Version | Text Only | Print | Product List | Glossary On
Versions: 1 2 3 4 5 6 7 8 9 10 11 12 13 14 15 16 17 18 19 20 21 22 23 24 25 26 27 28 29 30 31 32 33 34 35 36 37 38 39 40 41 42 43 44 45 46 47 48 49 50
000
ASUS44 KMEG 040410
RWRMEG
MEMPHIS CWA HOURLY WEATHER ROUNDUP
NATIONAL WEATHER SERVICE MEMPHIS TN
1100 PM CDT MON AUG 03 2015

...WEST TENNESSEE...

CITY           SKY/WX    TMP DP  RH WIND       PRES   REMARKS
MEMPHIS INTL   MOCLDY    86  68  54 CALM      29.94S
NWS MEMPHIS      N/A     78 N/A N/A MISG        N/A
JACKSON        PTCLDY    76  73  91 CALM      29.95S
LEXINGTON      CLEAR     75  73  94 CALM      29.95S
DYERSBURG        N/A    N/A N/A N/A MISG        N/A


...EASTERN ARKANSAS...

CITY           SKY/WX    TMP DP  RH WIND       PRES   REMARKS
JONESBORO      PTCLDY    78  71  79 SW6       29.93R
WEST MEMPHIS   MOCLDY    77  74  90 CALM      29.93R
BATESVILLE     MOCLDY    79  73  83 CALM      29.94S
NEWPORT        MOCLDY    82  73  74 SW6       29.94S
WALNUT RIDGE   PTCLDY    81  70  69 SW5       29.93S
BLYTHEVILLE    PTCLDY    81  74  79 CALM      29.93S
SEARCY         MOCLDY    77  73  87 CALM      29.95S
STUTTGART      PTCLDY    82  72  69 CALM      29.94S
PINE BLUFF     CLEAR     75  70  84 CALM      29.94R
MONTICELLO     CLEAR     76  72  87 CALM      29.93R


...NORTH MISSISSIPPI...

CITY           SKY/WX    TMP DP  RH WIND       PRES   REMARKS
TUPELO         CLOUDY    79  73  82 NE5       29.94S
OLIVE BRANCH     N/A     82  72  69 CALM      29.95S
CORINTH        CLOUDY    77  73  88 CALM      29.94F
GREENWOOD      CLEAR     77  71  82 NE3       29.93R
COLUMBUS       PTCLDY    77  72  84 N1        29.92S
STARKVILLE     FAIR      73  70  88 CALM      29.94S
GOLDEN TRIANGL PTCLDY    79  66  65 CALM      29.93S


...SOUTHEAST MISSOURI...

CITY           SKY/WX    TMP DP  RH WIND       PRES   REMARKS
WEST PLAINS    CLEAR     75  70  84 CALM      30.00R
POPLAR BLUFF   CLEAR     78  75  90 CALM      29.92R
CAPE GIRARDEAU CLEAR     77  74  90 CALM      29.92S


...NORTHWEST ALABAMA...

CITY           SKY/WX    TMP DP  RH WIND       PRES   REMARKS
MUSCLE SHOALS  PTCLDY    76  71  85 CALM      29.96S


...MIDDLE TENNESSEE...

CITY           SKY/WX    TMP DP  RH WIND       PRES   REMARKS
NASHVILLE      CLEAR     80  69  69 CALM      29.95S
CLARKSVILLE    CLEAR     74  71  91 CALM      29.94S


...WESTERN KENTUCKY...

CITY           SKY/WX    TMP DP  RH WIND       PRES   REMARKS
PADUCAH        CLEAR     76  72  87 SW3       29.92S
FORT CAMPBELL  CLEAR     78  72  82 W2        29.94R


...CENTRAL ARKANSAS...

CITY           SKY/WX    TMP DP  RH WIND       PRES   REMARKS
LITTLE ROCK    MOCLDY    82  71  69 CALM      29.94R


SKY/WX REPORTED AS FAIR MEANS FEW OR NO CLOUDS BELOW
12 THOUSAND FEET.



USA.gov is the U.S. government's official web portal to all federal, state and local government web resources and services.